Location: Lahitte
(43.6596°N, 0.6805°E)
Time: 04:23:43
(UTC+00:00)

Delta 2 Rocket - Pass Details

Date: 15 May 2026
Orbit: 321 x 413 km, 35.6° (Epoch: 6 June)

Event Time Altitude Azimuth Distance (km) Brightness Sun altitude
Rises 19:35:18 0° 237° (WSW) 2,281 6.9 -3.9°
Reaches altitude 10° 19:37:53 10° 217° (SW) 1,398 5.5 -4.3°
Maximum altitude 19:40:03 17° 174° (S) 1,036 4.4 -4.7°
Drops below altitude 10° 19:42:09 10° 130° (SE) 1,354 4.7 -5.0°
Enters shadow 19:42:57 - 121° (ESE) 1,593 5.0 -5.1°
